[TLELIST] Archives

 

[list_settings.list_name] Current TLEs

August 21st 2021 PDT

HST 1 20580U 90037B 21232.77857469 .00000518 00000-0 20316-4 0 9997 2 20580 28.4710 359.4394 0002853 39.0867 81.4141 15.09708000520722 ISS (ZARYA) 1 25544U 98067A 21233.38619970 -.00069779 00000-0 -12925-2 0 9995 2 25544 51.6444 20.2959 0003205 301.6814 85.4926 15.48492423298708 CXO 1 25867U 99040B 21234.22544053 .00000499 00000-0 00000-0 0 9999 2 25867 53.4572 252.4314 8419231 226.9238 0.6366 0.37808494 10686 ____________________________________________________________________ These 2-Line ...Continue Reading

[list_settings.list_name] Current TLEs

August 20th 2021 PDT

HST 1 20580U 90037B 21231.78629861 .00000546 00000-0 22038-4 0 9994 2 20580 28.4710 6.0053 0002820 28.8795 87.9612 15.09707476520572 ISS (ZARYA) 1 25544U 98067A 21232.36426600 .00001185 00000-0 29725-4 0 9991 2 25544 51.6443 25.3494 0001519 335.9926 109.3107 15.48920390298545 CXO 1 25867U 99040B 21234.22544053 .00000499 00000-0 00000-0 0 9999 2 25867 53.4572 252.4314 8419231 226.9238 0.6366 0.37808494 10686 ____________________________________________________________________ These 2-Line ...Continue Reading

[list_settings.list_name] Current TLEs

August 19th 2021 PDT

HST 1 20580U 90037B 21230.79403400 .00000533 00000-0 21260-4 0 9995 2 20580 28.4710 12.5713 0002787 18.5572 94.6881 15.09706728520424 ISS (ZARYA) 1 25544U 98067A 21230.88636081 .00001147 00000-0 29037-4 0 9996 2 25544 51.6441 32.6603 0001423 328.2691 150.6402 15.48915226298318 CXO 1 25867U 99040B 21234.22496054 .00000499 00000-0 00000+0 0 9995 2 25867 53.4573 252.4314 8419231 226.9238 0.5708 0.37808650 21828 ____________________________________________________________________ These 2-Line ...Continue Reading

[list_settings.list_name] Current TLEs

August 18th 2021 PDT

HST 1 20580U 90037B 21229.87177465 .00000532 00000-0 21190-4 0 9992 2 20580 28.4710 18.6739 0002755 8.7933 122.0882 15.09706112520554 ISS (ZARYA) 1 25544U 98067A 21229.98800795 .00001465 00000-0 34810-4 0 9998 2 25544 51.6442 37.1023 0001388 321.2866 185.0257 15.48913679298176 CXO 1 25867U 99040B 21231.58220241 .00000494 00000-0 00000-0 0 9990 2 25867 53.5238 252.5496 8414950 226.9096 0.7466 0.37807138 10689 ____________________________________________________________________ These 2-Line ...Continue Reading

[list_settings.list_name] Current TLEs

August 17th 2021 PDT

HST 1 20580U 90037B 21228.80970697 .00000525 00000-0 20764-4 0 9990 2 20580 28.4709 25.7018 0002710 357.3620 109.8012 15.09705349520388 ISS (ZARYA) 1 25544U 98067A 21229.39494074 .00001506 00000-0 35572-4 0 9994 2 25544 51.6449 40.0350 0001355 317.8430 119.2973 15.48911936298089 CXO 1 25867U 99040B 21228.93848529 .00000475 00000-0 00000-0 0 9999 2 25867 53.5907 252.6538 8409975 226.9158 0.7837 0.37803521 10662 ____________________________________________________________________ These 2-Line ...Continue Reading

[list_settings.list_name] Current TLEs

August 16th 2021 PDT

HST 1 20580U 90037B 21227.88725138 .00000501 00000-0 19331-4 0 9997 2 20580 28.4709 31.8057 0002668 347.2397 136.4952 15.09704612519985 ISS (ZARYA) 1 25544U 98067A 21228.36098179 .00001101 00000-0 28207-4 0 9994 2 25544 51.6447 45.1483 0001367 311.9966 115.9020 15.48906255297928 CXO 1 25867U 99040B 21228.93848529 .00000475 00000-0 00000-0 0 9999 2 25867 53.5907 252.6538 8409975 226.9158 0.7837 0.37803521 10662 ____________________________________________________________________ These 2-Line ...Continue Reading

[list_settings.list_name] Current TLEs

August 15th 2021 PDT

HST 1 20580U 90037B 21226.89463543 .00000502 00000-0 19370-4 0 9990 2 20580 28.4708 38.3739 0002631 336.3193 141.9170 15.09704008519854 ISS (ZARYA) 1 25544U 98067A 21227.32718450 .00001179 00000-0 29623-4 0 9998 2 25544 51.6442 50.2621 0001283 311.2543 108.3261 15.48903018297764 CXO 1 25867U 99040B 21228.93848529 .00000475 00000-0 00000-0 0 9999 2 25867 53.5907 252.6538 8409975 226.9158 0.7837 0.37803521 10662 ____________________________________________________________________ These 2-Line ...Continue Reading

[list_settings.list_name] Current TLEs

August 14th 2021 PDT

HST 1 20580U 90037B 21225.81896759 .00000505 00000-0 19533-4 0 9994 2 20580 28.4708 45.4917 0002594 324.2428 56.2208 15.09703353519690 ISS (ZARYA) 1 25544U 98067A 21226.24959865 .00001356 00000-0 32848-4 0 9995 2 25544 51.6437 55.5919 0001260 306.9916 219.9589 15.48900181297597 CXO 1 25867U 99040B 21226.29340249 .00000540 00000-0 00000+0 0 9994 2 25867 53.6596 252.7695 8408562 226.9148 0.6416 0.37810999 21797 ____________________________________________________________________ These 2-Line ...Continue Reading

[list_settings.list_name] Current TLEs

August 13th 2021 PDT

HST 1 20580U 90037B 21224.84031611 .00000495 00000-0 18934-4 0 9996 2 20580 28.4707 51.9675 0002570 313.1067 137.9089 15.09702652519787 ISS (ZARYA) 1 25544U 98067A 21225.08452447 .00001000 00000-0 26368-4 0 9996 2 25544 51.6432 61.3538 0001216 306.1503 200.0188 15.48894829297417 CXO 1 25867U 99040B 21226.29340249 .00000540 00000-0 00000+0 0 9994 2 25867 53.6596 252.7695 8408562 226.9148 0.6416 0.37810999 21797 ____________________________________________________________________ These 2-Line ...Continue Reading

[list_settings.list_name] Current TLEs

August 12th 2021 PDT

HST 1 20580U 90037B 21223.83560581 .00000495 00000-0 18963-4 0 9999 2 20580 28.4706 58.6157 0002549 301.5598 78.1017 15.09701971519398 ISS (ZARYA) 1 25544U 98067A 21224.49220837 .00000457 00000-0 16469-4 0 9992 2 25544 51.6432 64.2834 0001186 294.1483 147.0698 15.48890637297326 CXO 1 25867U 99040B 21226.29340249 .00000540 00000-0 00000+0 0 9994 2 25867 53.6596 252.7695 8408562 226.9148 0.6416 0.37810999 21797 ____________________________________________________________________ These 2-Line ...Continue Reading
  • This mailing list is a public mailing list - anyone may join or leave, at any time.
  • This mailing list is announce-only.

International Space Station (ISS) / Hubble Space Telescope (HST) / Chandra X-Ray Observatory Orbital Data via EMAIL

Privacy Policy:

Private list